When you browse on this site, cookies collect data to enhance your experience and personalize the content and advertising you see.
Visit our Privacy Policy to learn more. By continuing to use the site, you agree to this use of cookies and data.
  • In Hungary
  • List of Countries
  • For 7 days
  • Water Temperature
  • Satellite Maps
  • Weather Map
  • News
  • Weather Widgets
  • user-avatar
    Login

    Hourly Weather Piotrkowko

    Today, 25 May, Saturday

    Time Temperature Precipitation Wind Pressure Humidity
    00:00 +11°C° 0 mm 3 mps 748 mmHg 71%
    01:00 +11°C° 0 mm 3 mps 748 mmHg 72%
    02:00 +11°C° 0 mm 3 mps 748 mmHg 74%
    03:00 +10°C° 0 mm 3 mps 748 mmHg 76%
    04:00 +10°C° 0 mm 3 mps 748 mmHg 79%
    05:00 +11°C° 0 mm 3 mps 748 mmHg 79%
    06:00 +13°C° 0 mm 3 mps 749 mmHg 79%
    07:00 +14°C° 0 mm 4 mps 749 mmHg 78%
    08:00 +15°C° 0 mm 4 mps 749 mmHg 75%
    09:00 +17°C° 0 mm 4 mps 749 mmHg 71%
    10:00 +16°C° 0 mm 5 mps 750 mmHg 67%
    11:00 +16°C° 0 mm 5 mps 750 mmHg 67%
    12:00 +16°C° 0 mm 5 mps 750 mmHg 66%
    13:00 +16°C° 0 mm 5 mps 750 mmHg 66%
    14:00 +16°C° 0 mm 5 mps 750 mmHg 66%
    15:00 +15°C° 0 mm 5 mps 750 mmHg 66%
    16:00 +15°C° 0 mm 4 mps 750 mmHg 66%
    17:00 +14°C° 0 mm 4 mps 750 mmHg 70%
    18:00 +13°C° 0 mm 3 mps 750 mmHg 75%
    19:00 +12°C° 0 mm 3 mps 750 mmHg 79%
    20:00 +11°C° 0 mm 3 mps 750 mmHg 82%
    21:00 +10°C° 0 mm 2 mps 750 mmHg 86%
    22:00 +8°C° 0 mm 2 mps 750 mmHg 89%
    23:00 +8°C° 0 mm 2 mps 750 mmHg 91%

    Tomorrow, 26 May, Sunday

    Time Temperature Precipitation Wind Pressure Humidity
    00:00 +8°C° 0 mm 3 mps 750 mmHg 92%
    01:00 +7°C° 0 mm 3 mps 750 mmHg 93%
    02:00 +7°C° 0 mm 3 mps 750 mmHg 94%
    03:00 +7°C° 0 mm 3 mps 750 mmHg 94%
    04:00 +7°C° 0 mm 3 mps 750 mmHg 95%
    05:00 +7°C° 0 mm 4 mps 750 mmHg 89%
    06:00 +10°C° 0 mm 4 mps 750 mmHg 83%
    07:00 +10°C° 0 mm 5 mps 750 mmHg 78%
    08:00 +12°C° 0 mm 5 mps 750 mmHg 74%
    09:00 +13°C° 0 mm 5 mps 749 mmHg 70%
    10:00 +15°C° 0 mm 5 mps 749 mmHg 67%
    11:00 +15°C° 0 mm 5 mps 749 mmHg 66%
    12:00 +16°C° 0 mm 5 mps 749 mmHg 64%
    13:00 +16°C° 0 mm 5 mps 748 mmHg 63%
    14:00 +17°C° 0 mm 5 mps 748 mmHg 63%
    15:00 +17°C° 0 mm 5 mps 748 mmHg 63%
    16:00 +17°C° 0 mm 5 mps 747 mmHg 62%
    17:00 +18°C° 0 mm 4 mps 747 mmHg 67%
    18:00 +17°C° 0 mm 4 mps 747 mmHg 72%
    19:00 +16°C° 0 mm 3 mps 747 mmHg 76%
    20:00 +14°C° 0 mm 3 mps 747 mmHg 81%
    21:00 +13°C° 0 mm 4 mps 747 mmHg 85%
    22:00 +12°C° 0 mm 4 mps 747 mmHg 90%
    23:00 +12°C° 0.1 mm 4 mps 747 mmHg 91%

    Day after tomorrow, 27 May, Monday

    Time Temperature Precipitation Wind Pressure Humidity
    00:00 +12°C° 0.1 mm 4 mps 747 mmHg 92%
    01:00 +12°C° 0.1 mm 4 mps 747 mmHg 93%
    02:00 +12°C° 0 mm 4 mps 746 mmHg 92%
    03:00 +12°C° 0 mm 4 mps 746 mmHg 91%
    04:00 +12°C° 0 mm 5 mps 745 mmHg 90%
    05:00 +14°C° 0 mm 5 mps 745 mmHg 86%
    06:00 +15°C° 0 mm 6 mps 745 mmHg 82%
    07:00 +17°C° 0 mm 7 mps 745 mmHg 78%
    08:00 +17°C° 0.2 mm 7 mps 745 mmHg 78%
    09:00 +19°C° 0.2 mm 6 mps 745 mmHg 79%
    10:00 +19°C° 0.2 mm 6 mps 745 mmHg 80%
    11:00 +17°C° 0.7 mm 5 mps 745 mmHg 83%
    12:00 +18°C° 0.7 mm 4 mps 746 mmHg 87%
    13:00 +17°C° 0.7 mm 4 mps 746 mmHg 91%
    14:00 +18°C° 0.4 mm 4 mps 746 mmHg 87%
    15:00 +19°C° 0.4 mm 4 mps 746 mmHg 84%
    16:00 +19°C° 0.4 mm 4 mps 746 mmHg 80%
    17:00 +18°C° 0.1 mm 3 mps 746 mmHg 81%
    18:00 +18°C° 0.1 mm 3 mps 746 mmHg 82%
    19:00 +17°C° 0.1 mm 2 mps 747 mmHg 83%
    20:00 +15°C° 0 mm 2 mps 747 mmHg 85%
    21:00 +14°C° 0 mm 2 mps 747 mmHg 87%
    22:00 +13°C° 0 mm 2 mps 747 mmHg 88%
    23:00 +12°C° 0 mm 2 mps 747 mmHg 89%

    28 May, Tuesday

    Time Temperature Precipitation Wind Pressure Humidity
    00:00 +12°C° 0 mm 2 mps 747 mmHg 90%
    01:00 +10°C° 0 mm 2 mps 747 mmHg 91%
    02:00 +10°C° 0 mm 2 mps 747 mmHg 90%
    03:00 +10°C° 0 mm 2 mps 747 mmHg 90%
    04:00 +10°C° 0 mm 2 mps 746 mmHg 89%
    05:00 +12°C° 0.2 mm 2 mps 746 mmHg 89%
    06:00 +13°C° 0.2 mm 2 mps 746 mmHg 89%
    07:00 +12°C° 0.2 mm 3 mps 746 mmHg 89%
    08:00 +12°C° 1 mm 3 mps 746 mmHg 90%
    09:00 +12°C° 1 mm 3 mps 746 mmHg 91%
    10:00 +12°C° 1 mm 3 mps 746 mmHg 91%
    11:00 +12°C° 0.8 mm 3 mps 745 mmHg 92%
    12:00 +12°C° 0.8 mm 4 mps 745 mmHg 92%
    13:00 +12°C° 0.8 mm 4 mps 745 mmHg 93%
    14:00 +12°C° 0.3 mm 4 mps 745 mmHg 93%
    15:00 +11°C° 0.3 mm 4 mps 745 mmHg 93%
    16:00 +11°C° 0.3 mm 4 mps 744 mmHg 93%
    17:00 +11°C° 0.4 mm 4 mps 745 mmHg 93%
    18:00 +11°C° 0.4 mm 4 mps 745 mmHg 93%
    19:00 +10°C° 0.4 mm 5 mps 745 mmHg 94%
    20:00 +9°C° 0.6 mm 5 mps 745 mmHg 94%
    21:00 +9°C° 0.6 mm 5 mps 745 mmHg 94%
    22:00 +9°C° 0.6 mm 5 mps 745 mmHg 94%
    23:00 +9°C° 0.3 mm 5 mps 745 mmHg 94%

    29 May, Wednesday

    Time Temperature Precipitation Wind Pressure Humidity
    00:00 +10°C° 0.3 mm 4 mps 746 mmHg 94%
    01:00 +10°C° 0.3 mm 4 mps 746 mmHg 94%
    02:00 +10°C° 0.2 mm 4 mps 746 mmHg 93%
    03:00 +8°C° 0.2 mm 4 mps 746 mmHg 92%
    04:00 +8°C° 0.2 mm 4 mps 746 mmHg 92%
    05:00 +8°C° 0.1 mm 4 mps 747 mmHg 91%
    06:00 +8°C° 0.1 mm 4 mps 747 mmHg 89%
    07:00 +10°C° 0.1 mm 4 mps 748 mmHg 88%
    08:00 +11°C° 0 mm 4 mps 748 mmHg 83%
    09:00 +12°C° 0 mm 5 mps 749 mmHg 78%
    10:00 +13°C° 0 mm 5 mps 749 mmHg 73%
    11:00 +14°C° 0 mm 5 mps 750 mmHg 68%
    12:00 +15°C° 0 mm 6 mps 750 mmHg 62%
    13:00 +16°C° 0 mm 6 mps 751 mmHg 56%
    14:00 +16°C° 0 mm 6 mps 751 mmHg 56%
    15:00 +16°C° 0 mm 6 mps 752 mmHg 55%
    16:00 +15°C° 0 mm 6 mps 752 mmHg 55%
    17:00 +14°C° 0 mm 5 mps 752 mmHg 59%
    18:00 +13°C° 0 mm 5 mps 753 mmHg 64%
    19:00 +11°C° 0 mm 4 mps 753 mmHg 69%
    20:00 +10°C° 0 mm 4 mps 754 mmHg 71%
    21:00 +9°C° 0 mm 3 mps 754 mmHg 73%
    22:00 +8°C° 0 mm 3 mps 755 mmHg 75%
    23:00 +7°C° 0 mm 3 mps 755 mmHg 76%

    30 May, Thursday

    Time Temperature Precipitation Wind Pressure Humidity
    00:00 +5°C° 0 mm 3 mps 755 mmHg 78%
    01:00 +5°C° 0 mm 3 mps 756 mmHg 79%
    02:00 +4°C° 0 mm 3 mps 756 mmHg 82%
    03:00 +4°C° 0 mm 3 mps 756 mmHg 85%
    04:00 +3°C° 0 mm 3 mps 756 mmHg 88%
    05:00 +5°C° 0 mm 3 mps 757 mmHg 81%
    06:00 +8°C° 0 mm 3 mps 757 mmHg 75%
    07:00 +10°C° 0 mm 3 mps 758 mmHg 68%
    08:00 +11°C° 0 mm 3 mps 758 mmHg 62%
    09:00 +13°C° 0 mm 2 mps 758 mmHg 55%
    10:00 +15°C° 0 mm 2 mps 758 mmHg 49%
    11:00 +16°C° 0 mm 2 mps 758 mmHg 47%
    12:00 +16°C° 0 mm 2 mps 757 mmHg 46%
    13:00 +17°C° 0 mm 2 mps 757 mmHg 45%
    14:00 +17°C° 0 mm 2 mps 757 mmHg 46%
    15:00 +18°C° 0 mm 2 mps 756 mmHg 47%
    16:00 +18°C° 0 mm 2 mps 756 mmHg 48%
    17:00 +17°C° 0 mm 2 mps 756 mmHg 55%
    18:00 +15°C° 0 mm 2 mps 755 mmHg 62%
    19:00 +14°C° 0 mm 2 mps 755 mmHg 68%
    20:00 +13°C° 0 mm 2 mps 755 mmHg 69%
    21:00 +11°C° 0 mm 3 mps 755 mmHg 70%
    22:00 +9°C° 0 mm 3 mps 754 mmHg 71%
    23:00 +9°C° 0 mm 3 mps 754 mmHg 70%
    Show more